sat.trackr.live / text

‹ back to catalog

ALPHASAT

NORAD 39215 · 2013-038A

PAYLOAD ACTIVE UNKNOWN

§ Identity

Operator
Country
IM
Launch date
2013-07-25
Launch site
FRGUI
Launch vehicle
Mass (kg)
RCS (m²)
16.31

Purposes: comms

External: N2YO · Heavens-Above · Gunter

§ Orbital elements

Epoch: 2026-05-24T22:43:39.986112Z

Period
1,436.03 min
Inclination
2.9966°
Eccentricity
0.0002004
Mean motion
1.00276140 rev/d
Perigee alt
35,776.9 km
Apogee alt
35,793.8 km
Semi-major
42,163.5 km
B*
0.0000e+0
RAAN
1.5512°
Arg perigee
45.7805°
Mean anomaly
200.9411°
Rev number
4,378

§ Raw data

ALPHASAT1 39215U 13038A   26144.94699058  .00000130  00000+0  00000+0 0  99942 39215   2.9966   1.5512 0002004  45.7805 200.9411  1.00276140 43783

JSON: /api/v1/satellites/39215 · /tle

For live sub-satellite position, see the globe view (requires WebGL).

§ Visibility from observer

Set your observer location to see the next 7 days of passes ≥ 10°. The values pass through the URL so the page stays shareable.

No JS? Fill the form by hand. The geolocation button needs JavaScript.

§ Radio — SatNOGS DB

ModeDescriptionDownlinkUplink
FSK Mode L 1.553 GHz

1 transmitter · refreshed weekly from db.satnogs.org